Location: Newark
(49.8348°N, 24.0280°E)
Time: 00:31:44
(UTC+00:00)

deb Explorer IX - Pass Details

Date: 29 January 2020
Orbit: 549 x 1099 km, 38.8° (Epoch: 24 February)

Event Time Altitude Azimuth Distance (km) Brightness Sun altitude
Rises 17:58:01 0° 211° (SSW) 3,522 ? -26.6°
Reaches altitude 10° 18:01:16 10° 194° (SSW) 2,680 ? -27.1°
Enters shadow 18:03:50 17° 172° (S) 2,273 ? -27.5°
